| time (UTC) | temp F | wind direction | speed MPH | gust MPH | rain 1hr in | rain 24hr in | rain mn in | humidity % | barometer mb |
| 20260903213041 | 62 | 316 | 0.0 | 1.0 | 0.00 | 0.06 | 0.06 | 98 | 1013.7 |
| 20260903211609 | 61 | 340 | 0.0 | 3.0 | 0.00 | 0.06 | 0.06 | 98 | 1013.5 |
| 20260903210038 | 61 | 340 | 0.0 | 0.0 | 0.00 | 0.06 | 0.06 | 98 | 1013.7 |
| 20260903204539 | 61 | 324 | 0.0 | 0.0 | 0.00 | 0.06 | 0.06 | 98 | 1013.8 |
| 20260903203037 | 62 | 339 | 0.0 | 0.0 | 0.00 | 0.06 | 0.06 | 98 | 1013.8 |
| 20260903201535 | 62 | 309 | 0.0 | 1.0 | 0.00 | 0.06 | 0.06 | 98 | 1013.8 |
| 20260903200035 | 61 | 308 | 0.0 | 2.0 | 0.00 | 0.06 | 0.06 | 98 | 1014.0 |
| 20260903194534 | 61 | 327 | 0.0 | 0.0 | 0.00 | 0.06 | 0.06 | 98 | 1014.2 |
| 20260903193034 | 61 | 298 | 0.0 | 0.0 | 0.00 | 0.06 | 0.06 | 98 | 1014.3 |
| 20260903191533 | 62 | 333 | 0.0 | 0.0 | 0.00 | 0.06 | 0.06 | 98 | 1014.4 |
| 20260903190033 | 62 | 308 | 0.0 | 1.0 | 0.00 | 0.06 | 0.06 | 98 | 1014.6 |
| 20260903184532 | 61 | 320 | 0.0 | 1.0 | 0.00 | 0.06 | 0.06 | 98 | 1014.7 |
| 20260903183031 | 61 | 333 | 0.0 | 2.0 | 0.00 | 0.06 | 0.06 | 98 | 1014.8 |
| 20260903181532 | 61 | 308 | 0.0 | 0.0 | 0.00 | 0.06 | 0.06 | 98 | 1014.8 |
| 20260903180030 | 61 | 298 | 0.0 | 1.0 | 0.00 | 0.06 | 0.06 | 98 | 1014.5 |
| 20260903174551 | 61 | 303 | 0.0 | 0.0 | 0.00 | 0.06 | 0.06 | 98 | 1014.6 |
| 20260903173029 | 61 | 299 | 0.0 | 0.0 | 0.00 | 0.06 | 0.06 | 98 | 1014.5 |
| 20260903171532 | 61 | 249 | 0.0 | 0.0 | 0.01 | 0.06 | 0.06 | 98 | 1014.5 |
| 20260903170034 | 61 | 250 | 0.0 | 1.0 | 0.02 | 0.06 | 0.06 | 98 | 1014.4 |
| 20260903164528 | 61 | 235 | 0.0 | 10.0 | 0.02 | 0.06 | 0.06 | 98 | 1014.3 |
| 20260903163027 | 61 | 232 | 2.0 | 9.0 | 0.02 | 0.06 | 0.06 | 98 | 1014.2 |
| 20260903161526 | 61 | 234 | 0.0 | 9.0 | 0.01 | 0.05 | 0.05 | 98 | 1014.2 |
| 20260903160029 | 61 | 220 | 0.0 | 10.0 | 0.00 | 0.04 | 0.04 | 98 | 1014.4 |
| 20260903154526 | 61 | 220 | 0.0 | 13.0 | 0.00 | 0.05 | 0.04 | 98 | 1014.4 |
| 20260903153025 | 61 | 218 | 0.0 | 8.0 | 0.01 | 0.05 | 0.04 | 98 | 1014.5 |
| 20260903151524 | 61 | 221 | 2.0 | 12.0 | 0.01 | 0.05 | 0.04 | 98 | 1014.5 |
| 20260903150028 | 61 | 234 | 3.0 | 10.0 | 0.02 | 0.05 | 0.04 | 98 | 1014.5 |
| 20260903144523 | 61 | 226 | 0.0 | 10.0 | 0.02 | 0.05 | 0.04 | 98 | 1014.4 |
| 20260903143023 | 61 | 213 | 0.0 | 11.0 | 0.01 | 0.04 | 0.03 | 98 | 1014.3 |
| 20260903141523 | 61 | 214 | 1.0 | 14.0 | 0.01 | 0.04 | 0.03 | 98 | 1014.2 |
| 20260903140021 | 61 | 223 | 2.0 | 14.0 | 0.01 | 0.03 | 0.02 | 98 | 1014.1 |
| 20260903134519 | 61 | 210 | 7.0 | 17.0 | 0.02 | 0.03 | 0.02 | 98 | 1014.0 |
| 20260903133017 | 61 | 216 | 6.0 | 16.0 | 0.02 | 0.03 | 0.02 | 98 | 1014.0 |
| 20260903131517 | 61 | 210 | 1.0 | 15.0 | 0.02 | 0.03 | 0.02 | 98 | 1014.1 |
| 20260903130014 | 61 | 212 | 4.0 | 13.0 | 0.01 | 0.02 | 0.01 | 98 | 1014.2 |
| 20260903124513 | 61 | 223 | 2.0 | 13.0 | 0.00 | 0.07 | 0.00 | 98 | 1014.3 |
| 20260903123011 | 61 | 218 | 4.0 | 16.0 | 0.00 | 0.07 | 0.00 | 98 | 1014.3 |
| 20260903121509 | 61 | 218 | 5.0 | 14.0 | 0.00 | 0.07 | 0.00 | 98 | 1014.5 |
| 20260903120009 | 61 | 225 | 0.0 | 11.0 | 0.00 | 0.07 | 0.00 | 97 | 1014.6 |
| 20260903114507 | 61 | 220 | 2.0 | 11.0 | 0.00 | 0.14 | 0.00 | 97 | 1014.7 |
| 20260903113005 | 61 | 218 | 1.0 | 8.0 | 0.00 | 0.14 | 0.00 | 97 | 1014.8 |
| 20260903111503 | 61 | 218 | 0.0 | 8.0 | 0.00 | 0.14 | 0.00 | 97 | 1015.0 |
| 20260903110002 | 61 | 214 | 0.0 | 9.0 | 0.00 | 0.14 | 0.00 | 97 | 1015.2 |
| 20260903104501 | 61 | 213 | 0.0 | 9.0 | 0.00 | 0.14 | 0.00 | 97 | 1015.2 |
| 20260903103001 | 61 | 223 | 0.0 | 1.0 | 0.00 | 0.14 | 0.00 | 97 | 1015.2 |
| 20260903101600 | 61 | 223 | 0.0 | 2.0 | 0.00 | 0.14 | 0.00 | 97 | 1015.2 |
| 20260903100059 | 61 | 226 | 0.0 | 1.0 | 0.00 | 0.14 | 0.00 | 97 | 1015.5 |
| 20260903094607 | 61 | 217 | 0.0 | 0.0 | 0.00 | 0.15 | 0.00 | 97 | 1015.4 |
| 20260903093056 | 61 | 222 | 0.0 | 1.0 | 0.00 | 0.15 | 0.00 | 97 | 1015.6 |
| 20260903091555 | 61 | 223 | 0.0 | 3.0 | 0.00 | 0.15 | 0.00 | 97 | 1015.8 |
| 20260903090052 | 61 | 216 | 0.0 | 0.0 | 0.00 | 0.15 | 0.00 | 97 | 1015.9 |
| 20260903084552 | 61 | 216 | 0.0 | 0.0 | 0.00 | 0.15 | 0.00 | 97 | 1016.1 |
| 20260903083049 | 61 | 220 | 0.0 | 0.0 | 0.00 | 0.15 | 0.00 | 97 | 1016.1 |
| 20260903081548 | 61 | 216 | 0.0 | 0.0 | 0.00 | 0.15 | 0.00 | 97 | 1016.2 |
| 20260903080046 | 60 | 221 | 0.0 | 0.0 | 0.00 | 0.15 | 0.00 | 97 | 1016.2 |
| 20260903074544 | 60 | 209 | 0.0 | 0.0 | 0.00 | 0.15 | 0.00 | 97 | 1016.2 |
| 20260903073047 | 60 | 216 | 0.0 | 0.0 | 0.00 | 0.15 | 0.00 | 97 | 1016.3 |
| 20260903071542 | 60 | 216 | 0.0 | 0.0 | 0.00 | 0.15 | 0.00 | 96 | 1016.4 |
| 20260903070044 | 60 | 216 | 0.0 | 0.0 | 0.00 | 0.15 | 0.00 | 96 | 1016.5 |
| 20260903064535 | 60 | 215 | 0.0 | 0.0 | 0.00 | 0.15 | 0.15 | 96 | 1016.6 |
| 20260903063034 | 60 | 230 | 0.0 | 0.0 | 0.00 | 0.15 | 0.15 | 96 | 1016.6 |
| 20260903061553 | 60 | 272 | 0.0 | 0.0 | 0.00 | 0.15 | 0.15 | 96 | 1016.8 |
| 20260903060034 | 60 | 341 | 0.0 | 0.0 | 0.00 | 0.15 | 0.15 | 96 | 1016.8 |
| 20260903054533 | 60 | 341 | 0.0 | 0.0 | 0.00 | 0.15 | 0.15 | 96 | 1016.8 |
| 20260903053034 | 60 | 341 | 0.0 | 0.0 | 0.00 | 0.15 | 0.15 | 96 | 1016.9 |
| 20260903051532 | 60 | 341 | 0.0 | 0.0 | 0.00 | 0.15 | 0.15 | 96 | 1017.0 |
| 20260903050031 | 60 | 341 | 0.0 | 0.0 | 0.00 | 0.15 | 0.15 | 96 | 1017.1 |
| 20260903044530 | 60 | 341 | 0.0 | 0.0 | 0.00 | 0.15 | 0.15 | 96 | 1017.1 |
| 20260903043034 | 60 | 341 | 0.0 | 0.0 | 0.00 | 0.15 | 0.15 | 96 | 1017.1 |
| 20260903041533 | 61 | 341 | 0.0 | 0.0 | 0.00 | 0.15 | 0.15 | 96 | 1017.0 |
| 20260903040029 | 61 | 341 | 0.0 | 0.0 | 0.00 | 0.15 | 0.15 | 96 | 1017.0 |
| 20260903034529 | 61 | 342 | 0.0 | 0.0 | 0.00 | 0.15 | 0.15 | 96 | 1016.8 |
| 20260903033028 | 61 | 306 | 0.0 | 0.0 | 0.00 | 0.15 | 0.15 | 95 | 1016.7 |
| 20260903031531 | 61 | 303 | 0.0 | 0.0 | 0.00 | 0.15 | 0.15 | 95 | 1016.5 |
| 20260903030051 | 61 | 307 | 0.0 | 0.0 | 0.00 | 0.15 | 0.15 | 95 | 1016.5 |
| 20260903024524 | 61 | 314 | 0.0 | 0.0 | 0.00 | 0.15 | 0.15 | 95 | 1016.5 |
| 20260903023020 | 61 | 310 | 0.0 | 0.0 | 0.00 | 0.15 | 0.15 | 94 | 1016.6 |
| 20260903021516 | 61 | 296 | 0.0 | 0.0 | 0.00 | 0.15 | 0.15 | 94 | 1016.6 |
| 20260903020011 | 62 | 294 | 0.0 | 0.0 | 0.00 | 0.15 | 0.15 | 93 | 1016.6 |
| 20260903014507 | 62 | 299 | 0.0 | 0.0 | 0.00 | 0.15 | 0.15 | 92 | 1016.7 |
| 20260903013002 | 62 | 304 | 0.0 | 0.0 | 0.00 | 0.15 | 0.15 | 91 | 1016.7 |
| 20260903011609 | 63 | 300 | 0.0 | 0.0 | 0.00 | 0.15 | 0.15 | 91 | 1016.8 |
| 20260903010114 | 63 | 301 | 0.0 | 0.0 | 0.00 | 0.15 | 0.15 | 91 | 1016.9 |
| 20260903004550 | 64 | 284 | 0.0 | 0.0 | 0.00 | 0.15 | 0.15 | 88 | 1016.9 |
| 20260903003046 | 65 | 304 | 0.0 | 0.0 | 0.00 | 0.15 | 0.15 | 87 | 1016.9 |
| 20260903001546 | 65 | 331 | 0.0 | 0.0 | 0.00 | 0.15 | 0.15 | 88 | 1016.9 |
| 20260903000045 | 65 | 304 | 0.0 | 2.0 | 0.00 | 0.15 | 0.15 | 87 | 1017.1 |
| 20260902234544 | 65 | 300 | 0.0 | 1.0 | 0.00 | 0.15 | 0.15 | 86 | 1017.2 |
| 20260902233040 | 65 | 267 | 0.0 | 3.0 | 0.00 | 0.15 | 0.15 | 86 | 1017.3 |
| 20260902231543 | 65 | 277 | 0.0 | 2.0 | 0.00 | 0.15 | 0.15 | 87 | 1017.4 |
| 20260902230030 | 66 | 294 | 0.0 | 2.0 | 0.00 | 0.15 | 0.15 | 85 | 1017.5 |
| 20260902224543 | 66 | 305 | 0.0 | 2.0 | 0.00 | 0.15 | 0.15 | 85 | 1017.8 |
| 20260902223022 | 65 | 297 | 0.0 | 1.0 | 0.00 | 0.15 | 0.15 | 83 | 1017.8 |
| 20260902221522 | 65 | 328 | 0.0 | 1.0 | 0.00 | 0.15 | 0.15 | 85 | 1018.0 |
| 20260902220028 | 65 | 296 | 0.0 | 5.0 | 0.00 | 0.15 | 0.15 | 84 | 1018.0 |
| 20260902214510 | 65 | 334 | 0.0 | 0.0 | 0.00 | 0.15 | 0.15 | 86 | 1018.1 |